Content
SEND FEEDBACK

Daily
Averages
Monthly
Summary
Mexico

LEONA VICARIO, QUINTANA ROO


Home > North America > Mexico > Quintana Roo
Elevation: 26 feet     Latitude: 20 59N     Longitude: 087 12W

WEATHER
 
SELECT A DAY
Number of Records: 163,931;   Date Range: 1/1/95 - 8/31/14
 
SHARE

PRINT THIS DATA

[ ← Previous Day ]
WEATHER ALMANAC - MAY 1, 2013
[ Next Day → ]
[ °C ]   °F
Weather ElementAverageHighLow
Temperature81.9 °F86 °F (9:50 am)71.6 °F (11:46 pm)
Dewpoint74.6 °F78.8 °F (2:43 pm)69.8 °F (11:46 pm)
Humidity78.8 %94 % (11:46 pm)70 % (9:50 am)
Barometer29.84 in29.91 in (11:46 pm)29.80 in (2:40 am)
Wind Speed15.2 mph21.9 mph (9:50 am)
Wind Gust24.2 mph (11:46 pm)
Weather ElementAverage
Visibility6.3 mi
Wind DirectionSE (134.8 °)

Weather ElementTotal
Precipitation---
Cooling Degree Days13.8 (Base 65)
Growing Degree Days28.8 (Base 50)
Averaged from 23 records on May 1, 2013
WEATHER CONDITIONS BREAKOUT
WIND DIRECTION BREAKOUT
WEATHER BY HOUR - MAY 1, 2013
[ °C ]   °F
Local TimeTemperatureDewpointHumidityBarometerVisibilityWind DirectionWind SpeedGust SpeedPrecipitationEventsConditions
1:46 AM78.8 °F71.6 °F78 %29.81 in7.0 miSE (130°)12.7 mphMostly Cloudy
2:40 AM78.8 °F71.6 °F78 %29.80 in7.0 miSE (140°)13.8 mphMostly Cloudy
3:49 AM80.6 °F71.6 °F74 %29.80 in7.0 miSE (140°)12.7 mphScattered Clouds
4:42 AM80.6 °F73.4 °F79 %29.81 in7.0 miSE (140°)15.0 mphScattered Clouds
5:40 AM80.6 °F71.6 °F74 %29.83 in7.0 miSE (140°)13.8 mphScattered Clouds
6:50 AM80.6 °F73.4 °F79 %29.83 in7.0 miSE (140°)15.0 mphScattered Clouds
8:07 AM82.4 °F73.4 °F74 %29.86 in6.0 miSSE (150°)16.1 mphScattered Clouds
8:43 AM82.4 °F75.2 °F79 %29.87 in6.0 miSE (140°)20.7 mphScattered Clouds
9:50 AM86.0 °F75.2 °F70 %29.89 in6.0 miSE (140°)21.9 mphMostly Cloudy
10:41 AM86.0 °F75.2 °F70 %29.88 in6.0 miSE (130°)17.3 mphMostly Cloudy
11:46 AM86.0 °F75.2 °F70 %29.88 in6.0 miSSE (150°)21.9 mphMostly Cloudy
12:46 PM84.2 °F75.2 °F74 %29.89 in6.0 miSE (140°)21.9 mphOvercast
1:45 PM82.4 °F77.0 °F84 %29.85 in5.0 miSE (140°)15.0 mphOvercast
2:43 PM82.4 °F78.8 °F89 %29.84 in6.0 miSE (140°)13.8 mphMostly Cloudy
3:45 PM84.2 °F75.2 °F74 %29.83 in6.0 miSE (140°)15.0 mphMostly Cloudy
4:46 PM84.2 °F75.2 °F74 %29.82 in6.0 miSE (140°)18.4 mphMostly Cloudy
5:42 PM84.2 °F75.2 °F74 %29.80 in6.0 miSE (140°)15.0 mphMostly Cloudy
6:47 PM82.4 °F75.2 °F79 %29.81 in7.0 miSE (140°)16.1 mphMostly Cloudy
7:43 PM82.4 °F75.2 °F79 %29.80 in7.0 miSE (130°)13.8 mphMostly Cloudy
8:42 PM80.6 °F77.0 °F89 %29.82 in7.0 miSE (130°)12.7 mphScattered Clouds
9:48 PM80.6 °F77.0 °F89 %29.81 in7.0 miSE (140°)12.7 mphScattered Clouds
10:47 PM80.6 °F77.0 °F89 %29.84 in7.0 miESE (120°)9.2 mphScattered Clouds
11:46 PM71.6 °F69.8 °F94 %29.91 in4.0 miENE (60°)5.8 mph24.2 mphRain-ThunderstormThunderstorms and Rain
Hourly data recorded from MMUN, located miles away from Leona Vicario, Quintana Roo







STORIES FROM OUR PARTNERS